Погода в Водяном

Украина / Запорожская область     47°29′07″N   34°30′22″E
темп.,
°C
ветер,
м/с
пор.,
м/с
влажн.,
%
обл.,
%
осадки,
мм/ч
давл.,
гПа
погр.,
м
22 апреля, чт
чт2200:00+9юз59855 0.0 1019187
03:00+8юз45885 0.0 1019145
06:00+8ююз34885 0.0 1020109
09:00+11юз34755 0.0 1021277
12:00+13зюз23635 0.3 1022686
15:00+14зсз33618 0.9 1021703
18:00+13зсз116648 0.2 102027
21:00+12ю44765 0.5 102150
23 апреля, пт
пт2300:00+9ююз59850 0.0 1021207
03:00+9ююз410860 0.0 1021239
06:00+8ю510865 0.0 1021242
09:00+12ююз69705 0.0 1020380
12:00+15ююз795791 0.0 1019655
15:00+16ююз7105220 0.0 10171005
18:00+15юз81259100 0.0 1016498
21:00+12юз5872100 0.0 1017188
24 апреля, сб
сб2400:00+10зюз4891100 1.6 1016503
03:00+8сз5884100 3.1 1017551
06:00+7сз56820 0.0 1018318
09:00+9зсз67720 0.0 1019586
12:00+11з810515 0.0 10191691
15:00+11з11135553 0.0 10191756
18:00+11з9124616 0.1 10202374
21:00+8сз69482 0.1 1022874
25 апреля, вс
вс2500:00+7зсз57520 0.0 1022529
03:00+7зсз46580 0.0 1023305
06:00+6зсз45610 0.0 1023242
09:00+8з44550 0.0 1023537
12:00+9з33450 0.0 1022737
15:00+11з23370 0.0 1021732
18:00+13ююз23405 0.0 1020704
21:00+10ю465459 0.0 1020135
26 апреля, пн
пн2600:00+8зюз46645 0.0 1020226
03:00+8з576088 0.0 1019379
06:00+7юз576875 0.0 1018422
09:00+7сз6688100 0.4 1018598
12:00+9зсз47636 0.1 10191092
15:00+12з67405 0.1 10181908
18:00+12з6847100 0.0 10171660
21:00+10сз795430 0.0 1019672